When you browse on this site, cookies collect data to enhance your experience and personalize the content and advertising you see.
Visit our Privacy Policy to learn more. By continuing to use the site, you agree to this use of cookies and data.
  • In France
  • List of Countries
  • For 7 days
  • Water Temperature
  • Satellite Maps
  • Weather Map
  • Weather Widgets
  • user-avatar
    Login

    Hourly Weather Pacht

    Today, 24 January, Thursday

    Time Temperature Precipitation Wind Pressure Humidity
    00:00 -8°C° 0 mm 4 mps 744 mmHg 68%
    01:00 -8°C° 0 mm 3 mps 745 mmHg 69%
    02:00 -9°C° 0 mm 4 mps 745 mmHg 69%
    03:00 -9°C° 0 mm 4 mps 745 mmHg 70%
    04:00 -9°C° 0 mm 4 mps 745 mmHg 70%
    05:00 -9°C° 0 mm 4 mps 745 mmHg 70%
    06:00 -9°C° 0 mm 4 mps 746 mmHg 71%
    07:00 -9°C° 0 mm 4 mps 746 mmHg 71%
    08:00 -9°C° 0 mm 4 mps 746 mmHg 70%
    09:00 -9°C° 0 mm 4 mps 746 mmHg 68%
    10:00 -8°C° 0 mm 5 mps 747 mmHg 67%
    11:00 -8°C° 0 mm 5 mps 746 mmHg 65%
    12:00 -8°C° 0 mm 5 mps 746 mmHg 63%
    13:00 -7°C° 0 mm 5 mps 746 mmHg 61%
    14:00 -7°C° 0 mm 5 mps 747 mmHg 61%
    15:00 -7°C° 0 mm 5 mps 747 mmHg 62%
    16:00 -8°C° 0 mm 5 mps 747 mmHg 62%
    17:00 -8°C° 0 mm 5 mps 747 mmHg 64%
    18:00 -8°C° 0 mm 5 mps 747 mmHg 65%
    19:00 -8°C° 0 mm 5 mps 747 mmHg 67%
    20:00 -8°C° 0 mm 5 mps 747 mmHg 68%
    21:00 -8°C° 0 mm 5 mps 747 mmHg 70%
    22:00 -9°C° 0 mm 4 mps 747 mmHg 71%
    23:00 -9°C° 0 mm 4 mps 747 mmHg 71%

    Tomorrow, 25 January, Friday

    Time Temperature Precipitation Wind Pressure Humidity
    00:00 -9°C° 0 mm 4 mps 747 mmHg 70%
    01:00 -8°C° 0 mm 4 mps 747 mmHg 70%
    02:00 -9°C° 0.1 mm 4 mps 747 mmHg 72%
    03:00 -9°C° 0.1 mm 4 mps 747 mmHg 75%
    04:00 -9°C° 0.1 mm 4 mps 747 mmHg 77%
    05:00 -8°C° 0.1 mm 3 mps 747 mmHg 78%
    06:00 -8°C° 0.1 mm 3 mps 747 mmHg 79%
    07:00 -8°C° 0.1 mm 3 mps 747 mmHg 81%
    08:00 -8°C° 0.1 mm 3 mps 747 mmHg 80%
    09:00 -6°C° 0.1 mm 2 mps 747 mmHg 79%
    10:00 -6°C° 0.1 mm 2 mps 747 mmHg 79%
    11:00 -4°C° 0 mm 1 mps 747 mmHg 77%
    12:00 -4°C° 0 mm 1 mps 747 mmHg 76%
    13:00 -4°C° 0 mm 0 mps 747 mmHg 74%
    14:00 -3°C° 0.1 mm 1 mps 747 mmHg 75%
    15:00 -5°C° 0.1 mm 2 mps 747 mmHg 76%
    16:00 -5°C° 0.1 mm 2 mps 748 mmHg 77%
    17:00 -6°C° 0 mm 3 mps 748 mmHg 77%
    18:00 -6°C° 0 mm 3 mps 748 mmHg 77%
    19:00 -7°C° 0 mm 3 mps 748 mmHg 77%
    20:00 -7°C° 0 mm 3 mps 748 mmHg 77%
    21:00 -7°C° 0 mm 3 mps 748 mmHg 77%
    22:00 -8°C° 0 mm 4 mps 748 mmHg 77%
    23:00 -8°C° 0 mm 4 mps 748 mmHg 77%

    Day after tomorrow, 26 January, Saturday

    Time Temperature Precipitation Wind Pressure Humidity
    00:00 -7°C° 0 mm 3 mps 747 mmHg 77%
    01:00 -7°C° 0 mm 3 mps 747 mmHg 77%
    02:00 -7°C° 0 mm 3 mps 746 mmHg 76%
    03:00 -8°C° 0 mm 4 mps 745 mmHg 76%
    04:00 -8°C° 0 mm 4 mps 745 mmHg 75%
    05:00 -8°C° 0.1 mm 4 mps 744 mmHg 77%
    06:00 -8°C° 0.1 mm 4 mps 743 mmHg 79%
    07:00 -8°C° 0.1 mm 5 mps 742 mmHg 80%
    08:00 -7°C° 0.8 mm 5 mps 741 mmHg 85%
    09:00 -8°C° 0.8 mm 6 mps 741 mmHg 89%
    10:00 -6°C° 0.8 mm 6 mps 740 mmHg 93%
    11:00 -5°C° 0.8 mm 5 mps 739 mmHg 93%
    12:00 -4°C° 0.8 mm 5 mps 738 mmHg 93%
    13:00 -2°C° 0.8 mm 4 mps 738 mmHg 93%
    14:00 -2°C° 0 mm 4 mps 738 mmHg 94%
    15:00 -2°C° 0 mm 4 mps 738 mmHg 95%
    16:00 -1°C° 0 mm 3 mps 737 mmHg 95%
    17:00 -1°C° 0 mm 3 mps 738 mmHg 95%
    18:00 -1°C° 0 mm 3 mps 738 mmHg 95%
    19:00 -1°C° 0 mm 3 mps 738 mmHg 94%
    20:00 -1°C° 0.2 mm 3 mps 739 mmHg 94%
    21:00 -2°C° 0.2 mm 4 mps 739 mmHg 95%
    22:00 -2°C° 0.2 mm 4 mps 739 mmHg 95%
    23:00 -1°C° 0 mm 3 mps 739 mmHg 96%

    27 January, Sunday

    Time Temperature Precipitation Wind Pressure Humidity
    00:00 -1°C° 0 mm 3 mps 739 mmHg 96%
    01:00 -1°C° 0 mm 2 mps 740 mmHg 97%
    02:00 -1°C° 0 mm 2 mps 739 mmHg 97%
    03:00 +1°C° 0 mm 1 mps 739 mmHg 97%
    04:00 0°C° 0 mm 0 mps 739 mmHg 97%
    05:00 +1°C° 0.1 mm 1 mps 739 mmHg 97%
    06:00 -1°C° 0.1 mm 2 mps 738 mmHg 97%
    07:00 -1°C° 0.1 mm 2 mps 738 mmHg 97%
    08:00 -1°C° 0.2 mm 3 mps 738 mmHg 97%
    09:00 -1°C° 0.2 mm 3 mps 738 mmHg 97%
    10:00 0°C° 0.2 mm 3 mps 737 mmHg 98%
    11:00 0°C° 0.6 mm 3 mps 737 mmHg 98%
    12:00 0°C° 0.6 mm 3 mps 736 mmHg 99%
    13:00 0°C° 0.6 mm 3 mps 736 mmHg 99%
    14:00 0°C° 0.1 mm 3 mps 735 mmHg 99%
    15:00 0°C° 0.1 mm 3 mps 735 mmHg 99%
    16:00 0°C° 0.1 mm 3 mps 734 mmHg 98%
    17:00 0°C° 0.1 mm 3 mps 734 mmHg 97%
    18:00 0°C° 0.1 mm 3 mps 734 mmHg 96%
    19:00 0°C° 0.1 mm 3 mps 734 mmHg 94%
    20:00 0°C° 0 mm 3 mps 734 mmHg 93%
    21:00 -1°C° 0 mm 4 mps 733 mmHg 91%
    22:00 -1°C° 0 mm 4 mps 733 mmHg 90%
    23:00 -1°C° 0.1 mm 4 mps 733 mmHg 89%

    28 January, Monday

    Time Temperature Precipitation Wind Pressure Humidity
    00:00 -1°C° 0.1 mm 4 mps 733 mmHg 89%
    01:00 -1°C° 0.1 mm 4 mps 733 mmHg 89%
    02:00 -1°C° 0.2 mm 4 mps 732 mmHg 90%
    03:00 -1°C° 0.2 mm 4 mps 732 mmHg 90%
    04:00 -1°C° 0.2 mm 4 mps 731 mmHg 91%
    05:00 -1°C° 0 mm 4 mps 731 mmHg 92%
    06:00 -1°C° 0 mm 3 mps 731 mmHg 92%
    07:00 -1°C° 0 mm 3 mps 731 mmHg 92%
    08:00 -1°C° 0 mm 3 mps 731 mmHg 92%
    09:00 0°C° 0 mm 3 mps 731 mmHg 92%
    10:00 0°C° 0 mm 3 mps 731 mmHg 91%
    11:00 0°C° 0 mm 3 mps 731 mmHg 94%
    12:00 0°C° 0 mm 3 mps 731 mmHg 96%
    13:00 0°C° 0 mm 3 mps 731 mmHg 99%
    14:00 0°C° 0.3 mm 3 mps 731 mmHg 98%
    15:00 0°C° 0.3 mm 3 mps 731 mmHg 97%
    16:00 0°C° 0.3 mm 3 mps 731 mmHg 96%
    17:00 0°C° 0.1 mm 3 mps 731 mmHg 95%
    18:00 0°C° 0.1 mm 3 mps 731 mmHg 94%
    19:00 -1°C° 0.1 mm 3 mps 731 mmHg 92%
    20:00 0°C° 0 mm 3 mps 731 mmHg 92%
    21:00 0°C° 0 mm 3 mps 731 mmHg 91%
    22:00 -1°C° 0 mm 4 mps 731 mmHg 90%
    23:00 -1°C° 0 mm 4 mps 732 mmHg 91%

    29 January, Tuesday

    Time Temperature Precipitation Wind Pressure Humidity
    00:00 -1°C° 0 mm 4 mps 732 mmHg 93%
    01:00 -1°C° 0 mm 4 mps 732 mmHg 94%
    02:00 -1°C° 0.2 mm 5 mps 733 mmHg 94%
    03:00 -2°C° 0.2 mm 6 mps 733 mmHg 94%
    04:00 -2°C° 0.2 mm 6 mps 733 mmHg 94%
    05:00 -2°C° 0.2 mm 6 mps 734 mmHg 93%
    06:00 -2°C° 0.2 mm 7 mps 735 mmHg 92%
    07:00 -2°C° 0.2 mm 7 mps 736 mmHg 91%
    08:00 -3°C° 0.2 mm 7 mps 737 mmHg 89%
    09:00 -3°C° 0.2 mm 7 mps 738 mmHg 87%
    10:00 -3°C° 0.2 mm 7 mps 739 mmHg 85%
    11:00 -3°C° 0 mm 6 mps 740 mmHg 84%
    12:00 -3°C° 0 mm 6 mps 740 mmHg 82%
    13:00 -2°C° 0 mm 5 mps 740 mmHg 81%
    14:00 -2°C° 0 mm 5 mps 741 mmHg 83%
    15:00 -2°C° 0 mm 5 mps 741 mmHg 84%
    16:00 -2°C° 0 mm 4 mps 741 mmHg 86%
    17:00 -2°C° 0 mm 4 mps 741 mmHg 86%
    18:00 -2°C° 0 mm 4 mps 741 mmHg 87%
    19:00 -3°C° 0 mm 4 mps 741 mmHg 87%
    20:00 -3°C° 0 mm 4 mps 742 mmHg 87%
    21:00 -3°C° 0 mm 4 mps 742 mmHg 87%
    22:00 -3°C° 0 mm 4 mps 742 mmHg 87%
    23:00 -3°C° 0 mm 4 mps 741 mmHg 86%
    Show more